, AK

(GMT )
Anchorage

Weather History for PANC - February, 2013

Change the Weather History Date:

Sunday, February 24, 2013

  Actual Average Record
Temperature  
Mean Temperature 26 °F 22 °F  
Max Temperature 30 °F 29 °F 46 °F (1978)
Min Temperature 21 °F 15 °F -11 °F (1995)
Degree Days  
Heating Degree Days 39    
Month to date heating degree days 974  
Since 1 July heating degree days 7294  
Cooling Degree Days 0    
Month to date cooling degree days 0  
Year to date cooling degree days 0  
Moisture  
Dew Point 21 °F    
Average Humidity 84    
Maximum Humidity 96    
Minimum Humidity 72    
Precipitation  
Precipitation 0.00 in 0.03 in 0.24 in (1990)
Month to date precipitation 1.24 0.64  
Year to date precipitation 2.46 1.37  
Snow  
Snow 0.00 in 0.30 in 3.50 in (1990)
Month to date snowfall 16.5 9.6  
Since 1 July snowfall 56.1 59.0  
Snow Depth 15.00 in    
Sea Level Pressure  
Sea Level Pressure 29.50 in    
Wind  
Wind Speed 4 mph (NNE)    
Max Wind Speed 7 mph    
Max Gust Speed -    
Visibility 8 miles    
Events Fog    
T = Trace of Precipitation, MM = Missing Value Source: NWS Daily Summary

Daily Weather History Graph

Daily Weather History Graph

Search for Another Location

Airport or City:

Trip Planner

Search our weather history database for the weather conditions in past years. The results will help you decide how hot, cold, wet, or windy it might be!

Date:

Astronomy

Feb. 24, 2013 Rise Set
Actual Time 8:14 AM AKST 6:13 PM AKST
Civil Twilight 7:30 AM AKST 6:57 PM AKST
Nautical Twilight 6:40 AM AKST 7:47 PM AKST
Astronomical Twilight 5:50 AM AKST 8:37 PM AKST
Moon 5:37 PM AKST (2/24) 7:21 AM AKST (2/24)
Length of Visible Light 11h 26m
Length of Day
9h 58m
Waxing Gibbous, 99% of the Moon is Illuminated
Feb 24
Waxing Gibbous
Feb 25
Full
Mar 4
Last Quarter
Mar 11
New
Mar 19
First Quarter

Hourly Weather History & Observations

Time (AKST) Temp. Windchill Dew Point Humidity Pressure Visibility Wind Dir Wind Speed Gust Speed Precip Events Conditions
12:53 AM 25.0 °F 18.1 °F 21.0 °F 85% 29.34 in 10.0 mi NNE 5.8 mph - N/A   Overcast
1:53 AM 21.0 °F - 18.0 °F 88% 29.35 in 10.0 mi Calm Calm - N/A   Overcast
3:03 AM 24.8 °F - 21.2 °F 86% 29.35 in 10.0 mi Calm Calm - N/A   Overcast
3:49 AM 24.8 °F 16.1 °F 21.2 °F 86% 29.35 in 10.0 mi NE 8.1 mph - N/A   Overcast
3:53 AM 25.0 °F 17.1 °F 21.0 °F 85% 29.36 in 10.0 mi NE 6.9 mph - N/A   Mostly Cloudy
4:53 AM 24.1 °F 18.2 °F 19.0 °F 81% 29.37 in 10.0 mi North 4.6 mph - N/A   Mostly Cloudy
5:53 AM 23.0 °F 18.4 °F 18.0 °F 81% 29.38 in 10.0 mi North 3.5 mph - N/A   Mostly Cloudy
6:53 AM 23.0 °F 17.0 °F 18.0 °F 81% 29.40 in 10.0 mi NNW 4.6 mph - N/A   Mostly Cloudy
7:53 AM 21.9 °F 17.2 °F 19.0 °F 89% 29.40 in 10.0 mi North 3.5 mph - N/A   Overcast
8:53 AM 24.1 °F 18.2 °F 19.0 °F 81% 29.42 in 10.0 mi NNE 4.6 mph - N/A   Overcast
9:53 AM 25.0 °F 17.1 °F 19.9 °F 81% 29.43 in 10.0 mi North 6.9 mph - N/A   Overcast
10:53 AM 25.0 °F 19.3 °F 19.9 °F 81% 29.45 in 10.0 mi NNW 4.6 mph - N/A   Overcast
11:53 AM 27.0 °F 20.5 °F 19.9 °F 75% 29.47 in 10.0 mi North 5.8 mph - N/A   Overcast
12:53 PM 28.9 °F 21.9 °F 21.0 °F 72% 29.49 in 10.0 mi North 6.9 mph - N/A   Overcast
1:53 PM 28.0 °F 21.7 °F 21.9 °F 78% 29.49 in 10.0 mi North 5.8 mph - N/A   Overcast
2:53 PM 30.0 °F 25.2 °F 23.0 °F 75% 29.50 in 10.0 mi North 4.6 mph - N/A   Mostly Cloudy
3:53 PM 28.9 °F 23.9 °F 24.1 °F 82% 29.52 in 10.0 mi North 4.6 mph - N/A   Mostly Cloudy
4:53 PM 28.9 °F 25.2 °F 24.1 °F 82% 29.53 in 10.0 mi North 3.5 mph - N/A   Mostly Cloudy
5:53 PM 28.9 °F 22.8 °F 24.1 °F 82% 29.55 in 10.0 mi North 5.8 mph - N/A   Mostly Cloudy
6:53 PM 28.0 °F 22.8 °F 24.1 °F 85% 29.57 in 10.0 mi North 4.6 mph - N/A   Mostly Cloudy
7:53 PM 28.0 °F - 24.1 °F 85% 29.59 in 10.0 mi Calm Calm - N/A   Overcast
8:53 PM 27.0 °F - 24.1 °F 89% 29.60 in 10.0 mi Calm Calm - N/A   Overcast
9:53 PM 25.0 °F 18.1 °F 21.9 °F 88% 29.62 in 10.0 mi East 5.8 mph - N/A   Scattered Clouds
10:35 PM 23.0 °F 17.0 °F 21.2 °F 93% 29.61 in 2.0 mi Variable 4.6 mph - N/A Fog Scattered Clouds
10:41 PM 24.8 °F 17.9 °F 21.2 °F 86% 29.62 in 10.0 mi East 5.8 mph - N/A Fog Shallow Fog
10:53 PM 26.1 °F 19.4 °F 23.0 °F 88% 29.62 in 10.0 mi ESE 5.8 mph - N/A Fog Shallow Fog
11:26 PM 24.8 °F 20.5 °F 21.2 °F 86% 29.62 in 0.5 mi East 3.5 mph - N/A Fog Light Freezing Fog
11:28 PM 24.8 °F 20.5 °F 21.2 °F 86% 29.62 in 0.8 mi Variable 3.5 mph - N/A   Mostly Cloudy
11:31 PM 21.2 °F 16.4 °F 19.4 °F 93% 29.62 in 1.5 mi SSE 3.5 mph - N/A   Scattered Clouds
11:38 PM 24.8 °F 20.5 °F 21.2 °F 86% 29.62 in 0.8 mi Variable 3.5 mph - N/A   Scattered Clouds
11:41 PM 23.0 °F 18.4 °F 21.2 °F 93% 29.62 in 1.2 mi Variable 3.5 mph - N/A   Scattered Clouds
11:53 PM 21.0 °F - 19.0 °F 92% 29.63 in 1.0 mi Calm Calm - N/A   Mostly Cloudy
11:59 PM 23.0 °F - 19.4 °F 86% 29.62 in 0.8 mi Calm Calm - N/A   Mostly Cloudy